Springfield, CO

3:18 AM MDT on July 25, 2017 (GMT -0600)
Springfield

Weather History for KSPD - April, 2014

Change the Weather History Date:

Monday, April 14, 2014

  Actual Average Record
Temperature  
Mean Temperature 30 °F -  
Max Temperature 40 °F 67 °F 87 °F (2002)
Min Temperature 20 °F 36 °F 20 °F (2014)
Degree Days  
Heating Degree Days 35 14  
Month to date heating degree days 239 222  
Since 1 July heating degree days 4948 4915  
Cooling Degree Days 0 0  
Month to date cooling degree days 3 0  
Year to date cooling degree days 3 0  
Moisture  
Dew Point 19 °F    
Average Humidity 65    
Maximum Humidity 96    
Minimum Humidity 33    
Precipitation  
Precipitation 0.04 in 0.05 in 0.55 in (1999)
Month to date precipitation 0.50  
Year to date precipitation 1.20  
Sea Level Pressure  
Sea Level Pressure 30.29 in    
Wind  
Wind Speed 15 mph (NNW)    
Max Wind Speed 32 mph    
Max Gust Speed 37 mph    
T = Trace of Precipitation, MM = Missing Value Source: NWS Daily Summary

Daily Weather History Graph

Daily Weather History Graph

Search for Another Location

Airport or City:

Trip Planner

Search our weather history database for the weather conditions in past years. The results will help you decide how hot, cold, wet, or windy it might be!

Date:

Astronomy

Apr. 14, 2014 Rise Set
Actual Time 6:17 AM MDT 7:24 PM MDT
Civil Twilight 5:50 AM MDT 7:51 PM MDT
Nautical Twilight 5:18 AM MDT 8:23 PM MDT
Astronomical Twilight 4:45 AM MDT 8:57 PM MDT
Moon 7:05 PM MDT (4/14) 5:49 AM MDT (4/14)
Length of Visible Light 14h 01m
Length of Day
13h 07m
Full, 100% of the Moon is Illuminated
Apr 14
Full
Apr 15
Full
Apr 22
Last Quarter
Apr 29
New
May 6
First Quarter

Hourly Weather History & Observations

Time (MDT) Temp. Windchill Dew Point Humidity Pressure Visibility Wind Dir Wind Speed Gust Speed Precip Events Conditions
12:56 AM 23.0 °F 5.7 °F 21.0 °F 92% 30.18 in - North 28.8 mph 35.7 mph 0.01 in   Unknown
1:56 AM 23.0 °F 6.6 °F 21.0 °F 92% 30.18 in - North 25.3 mph 35.7 mph 0.01 in   Unknown
2:56 AM 21.9 °F 5.8 °F 19.9 °F 92% 30.21 in - North 23.0 mph 29.9 mph 0.01 in   Unknown
3:56 AM 21.9 °F 5.8 °F 19.9 °F 92% 30.22 in - North 23.0 mph 34.5 mph N/A   Unknown
4:56 AM 21.0 °F 3.6 °F 19.0 °F 92% 30.25 in - North 26.5 mph - 0.01 in   Unknown
5:56 AM 21.9 °F 5.8 °F 19.9 °F 92% 30.27 in - North 23.0 mph - 0.01 in   Unknown
6:56 AM 21.9 °F 7.3 °F 19.0 °F 89% 30.31 in - NNW 18.4 mph - N/A   Unknown
7:56 AM 24.1 °F 10.6 °F 19.9 °F 84% 30.33 in - NNW 17.3 mph - N/A   Unknown
8:56 AM 26.1 °F 11.3 °F 21.0 °F 81% 30.35 in - NNW 23.0 mph - N/A   Unknown
9:56 AM 26.1 °F 11.3 °F 19.9 °F 78% 30.36 in - North 23.0 mph - N/A   Unknown
10:56 AM 27.0 °F 12.8 °F 19.9 °F 75% 30.39 in - NNW 21.9 mph - N/A   Unknown
11:56 AM 30.0 °F 17.9 °F 19.9 °F 66% 30.38 in - NNW 18.4 mph 25.3 mph N/A   Unknown
12:56 PM 30.9 °F 18.7 °F 21.0 °F 67% 30.35 in - NW 19.6 mph - N/A   Unknown
1:56 PM 33.1 °F 23.0 °F 23.0 °F 66% 30.34 in - NW 15.0 mph 23.0 mph N/A   Unknown
2:56 PM 35.1 °F 24.5 °F 19.9 °F 54% 30.31 in - NNW 18.4 mph - N/A   Unknown
3:56 PM 39.0 °F 29.9 °F 19.9 °F 46% 30.26 in - NW 17.3 mph 21.9 mph N/A   Unknown
4:56 PM 39.0 °F 30.6 °F 15.1 °F 38% 30.26 in - NNW 15.0 mph 24.2 mph N/A   Unknown
5:56 PM 39.9 °F 32.1 °F 12.0 °F 32% 30.24 in - NNW 13.8 mph 21.9 mph N/A   Unknown
6:56 PM 37.0 °F 31.0 °F 14.0 °F 39% 30.25 in - North 8.1 mph - N/A   Unknown
7:56 PM 30.0 °F 26.5 °F 17.1 °F 59% 30.27 in - NNW 3.5 mph - N/A   Unknown
8:56 PM 26.1 °F - 18.0 °F 71% 30.30 in - Calm Calm - N/A   Unknown
10:56 PM 21.9 °F - 17.1 °F 82% 30.32 in - Calm Calm - N/A   Unknown
11:56 PM 19.9 °F - 16.0 °F 85% 30.32 in - Calm Calm - N/A   Unknown